Погода в Липецке

Погода в Липецке : погода сейчас, прогноз погоды и архив. Всё, что Вы хотите узнать о погоде в Липецке!

Хотите узнать прогноз погоды в Липецке? Тогда Вам сюда: Погода в Липецке

Поиск расширенной информации на нашем сайте:

Другие новости

Новости СМИ2

Главная страница сайта

Новости сайта

03.07.2017

Напоминаем, что на нашем специализированном сайте Метеоцентр.Азия вы можете получить высокодетализированные автоматические прогнозы погоды по пунктам России, СНГ и мира в авиационном формате (включающие направление и скорость ветра, видимость, явления погоды, количество и форму облачности, нижнюю и верхнюю границу облачности).


Погода в Липецке - сегодня

Время (UTC), дата Ветер
(°,м/с) 
Видим.   Явления Облачность Т
(°С)
Тd
(°С)
f(%) Тe
(°С)
Pmin
(гПа)
dP
(гПа)
Po
(мм)
O2
(г/м3)
Тmin Tmax R s Состояние
почвы
09 20.01.18 160 (Ю) 5000 м  слаб. ливневой снег  10/10 700 м кучево-дожд. 
[Cb calv]
-7.6 -9.4 87 -13  1013.3  -0.1  743  309           
12 20.01.18 160 (Ю) 1600 м  ливневой снег  10/10 300 м кучево-дожд. 
[Cb calv]
-5.8 -6.5 95 -10  1012.8  -0.3  743  306           
15 20.01.18 190 (Ю) 7000 м  слаб. ливневой снег  10/10 600 м 
[Sc]
-2.7 -3.4 95 -7  1012.7  0.2  743  303    -2.7     
18 20.01.18 190 (Ю) 5{11}  10 км  {ливн. осадки}  10/10 330 м 
[Sc]
-1.7 -2.8 92 -5  1013.1  0.5  743  302           
21 20.01.18 180 (Ю) 6000 м  дымка  10/10 210 м 
[St]
-2.1 -2.7 96 -5  1013.5  0.3  743  302           
00 21.01.18 140 (ЮВ) 3000 м  слаб. снег  10/10 210 м 
[Frnb|Ns]
-2.9 -3.3 97 -5  1012.4  -1.1  743  303           
03 21.01.18 130 (ЮВ) 3000 м  слаб. снег  10/10 210 м 
[Frnb|Ns]
-3.7 -4.2 96 -7  1011.1  -1.4  742  303  -3.7    0.5  равномерный
сухой снег
100% 
06 21.01.18 100 (В) 2000 м  снег  10/10 150 м 
[Frnb|Ns]
-4.4 -5 96 -7  1010.4  -0.8  741  304  -4.4         
09 21.01.18 040 (СВ) 1500 м  снег  10/10 150 м 
[Frnb|Ns]
-4.3 -4.5 99 -7  1008.2  -2.1  739  303           
12 21.01.18 360 (С) 0800 м  сильн. снег  ?/? 100 
-3.6 -4.1 96 -7  1005.8  -2.3  738  302           
15 21.01.18 330 (СЗ) 1500 м  снег  10/10 100 м 
[Frnb|Ns]
-4.1 -4.3 99 -8  1005.9  738  302    -3.5  10     
18 21.01.18 290 (З) 6{10}  8000 м  в посл. час снег  10/10 270 м 
[Frnb|Ns]
-4.5 -5.4 93 -9  1007.8  1.9  739  303           
21 21.01.18 270 (З) 4{10}  6000 м  позёмок{дождь}  10/10 300 м 
[St]
-3.7 -4.5 94 -7  1011.3  3.5  742  303           
00 22.01.18 260 (З) 10 км    10/10 360 м 
[St]
-5.7 -7.1 90 -9  1013.8  2.3  743  307           
03 22.01.18 250 (З) 10 км    8/8 400 м 
[St]
-4.9 -5.5 96 -9  1015.4  1.5  745  306  -6.9       
06 22.01.18 260 (З) 10 км    9/9 630 м 
[Sc]
-5.8 -7.3 89 -9  1017.2  1.8  746  308           
09 22.01.18 270 (З) 10 км    10/10 630 м 
[Sc]
-3.6 -7.2 76 -5  1018.6  1.6  747  306           
12 22.01.18 280 (З) 10 км    10/10 660 м 
[Sc]
-4 -7.4 77 -6  1019.7  748  307           
15 22.01.18 310 (СЗ) 10 км    9/9 800 м 
[Sc]
-5.7 -7.5 87 -5  1021  1.1  749  309    -3.4       
18 22.01.18 010 (С) 10 км    10/10 800 м 
[Sc]
-6.1 -7.6 89 -9  1021.7  0.6  749  310           
21 22.01.18 030 (СВ) 10 км    10/10 800 м 
[Sc]
-7 -9.1 85 -10  1022.3  0.5  749  311           
00 23.01.18 030 (СВ) 10 км    10/10 540 м 
[Sc]
-7.8 -9.6 87 -11  1022.6  0.2  750  312           
03 23.01.18 020 (С) 8000 м  слаб. снег  10/10 400 м 
[Frnb|Ns]
-8.3 -9.7 90 -13  1022.5  -0.1  750  312  -8.5    0.0  14  равномерный
сухой снег
100% 
06 23.01.18 260 (З) 10 км    9/9 630 м 
[Sc]
-5.8 -7.3 89 -9  1017.2  1.8  746  308           
09 23.01.18 020 (С) 1800 м  сильн. снег  10/10 240 м 
[Frnb|Ns]
-9 -10.6 88 -14  1022.9  -0.1  750  313           
Время (UTC), дата Ветер
(°,м/с) 
Видим.   Явления Облачность Т
(°С)
Тd
(°С)
f(%) Тe
(°С)
Pmin
(гПа)
dP
(гПа)
Po
(мм)
O2
(г/м3)
Тmin Tmax R s Состояние
почвы

Для получения пояснительной информации подведите курсор к названию столбца.

ПОГОДА в Липецке - архив

Всё, что Вы хотите узнать о погоде в Липецке - удобно и подробно!

Выберите нужную дату (начиная с 1 января 2015* года) и нажмите кнопку "Найти".
Будут отображены архивные сводки погоды по пункту Липецк, начиная с указанной даты.


Отображать данные в формате CSV (для использования в таблицах Excel)


Внимание! Наш архив погоды предназначен исключительно для личного некоммерческого использования в познавательных целях. Если Вам необходимы официальные справки о состоянии погоды (для производственных, юридических, коммерческих и т.п. целей), обращайтесь в органы Росгидромета.

*Примечание: данная дата относится к архиву по метеостанциям СССР (Россия, СНГ, Балтия).
Архив по метеостанциям Зарубежной Европы и Азии (кроме Китая) хранится 10 дней, по другим регионам земного шара (Китай, Африка, Америка, Австралия, Океания) - 1 день.

Липецк - район местоположения метеостанции


Название, широта, долгота, высота метеостанции:
Липецк 52.7°ш. 39.5°д. 177 м над ур. моря [Российская Федерация]

Дополнительная информация

В oтличие oт бoльшинства пoгoдных сайтoв мы публикуем пoдрoбную метеoинфoрмацию в детальнoм прoфессиoнальнoм фoрмате.

Характеристики температуры и влажнoсти вoздуха измеряются на высoте 2 м в тени вдали oт зданий и деревьев.
Скoрoсть ветра измеряется на высoте 10 м (на урoвне рoста челoвека скoрoсть ветра ниже в 1.5-2 раза). Если метеoстанция нахoдится в гoрoде или в лесу, тo скoрoсть ветра занижена на 2-4 м/с пo сравнению с oткрытым местoм. Скoрoсть ветра над акватoриями крупных рек и oзёр, а также на вершинах хoлмoв на 2-5 м/с выше, чем в oбычных услoвиях.
Атмoсфернoе давление в разных тoчках местнoсти мoжет значительнo oтличаться oт давления на метеoстанции, в зависимoсти oт услoвий рельефа (при пoдъёме на 10 м давление пoнижается примернo на 1 мм рт.ст.).